Flag for U.S.A. Weather past 2 weeks in Clarksville, Tennessee, U.S.A.

Now
82 °F

Partly sunny.


Feels Like: 85 °F
Forecast: 66 / 84 °F
Wind: 6 mph from West

Location: Outlaw Field

Current Time: Jun 30, 2015 at 12:25:12 PM

Latest Report: Jun 30, 2015 at 11:52 AM


Visibility: 10 mi

Pressure: 29.92 "Hg

Humidity: 65%

Dew point: 69 °F

Location of ClarksvilleLocation

Historic Weather in Clarksville — Graph

°F

Clarksville temperature yesterday

Maximum temperature yesterday: 85 °F (at 1:52 PM)
Minimum temperature yesterday: 68 °F (at 12:52 AM)
Average temperature yesterday: 75 °F

Past Weeks' High & Low Weather Summary

 TemperatureHumidityPressure
High91 °F (Jun 23, 3:52 PM)100% (Jun 30, 4:59 AM)30.14 "Hg (Jun 30, 4:59 AM)
Low57 °F (Jun 28, 4:52 AM)43% (Jun 24, 4:52 PM)29.80 "Hg (Jun 19, 8:52 PM)
Average79 °F75%29.98 "Hg
* Reported Jun 15 10:52 AM — Jun 30 10:52 AM, Clarksville, Weather by CustomWeather, © 2015

Note: Actual official high and low records may vary slightly from our data, if they occured in-between our weather recording intervals... More about our weather records

Advertising

Clarksville weather history for previous 24 hours

 ConditionsComfort  
Time TempWeatherWind HumidityBarometerVisibility
10:52 AM
Tue, Jun 30
81 °FPassing clouds.5 mph72%29.92 "Hg10 mi
9:52 AM77 °FSunny.3 mph82%29.92 "Hg10 mi
8:52 AM74 °FSunny.3 mph88%29.91 "Hg10 mi
7:52 AM71 °FPassing clouds.3 mph90%29.90 "Hg10 mi
6:52 AM69 °FSunny.No wind93%29.89 "Hg10 mi
5:52 AM67 °FSunny.5 mph97%29.89 "Hg7 mi
4:59 AM65 °FFog.No wind100%29.90 "Hg3 mi
3:52 AM67 °FClear.No wind97%29.87 "Hg8 mi
2:52 AM68 °FClear.3 mph96%29.86 "Hg9 mi
1:52 AM70 °FClear.6 mph90%29.86 "Hg10 mi
12:52 AM71 °FClear.6 mph87%29.90 "Hg10 mi
11:52 PM
Mon, Jun 29
72 °FClear.5 mph87%29.89 "Hg10 mi
10:52 PM71 °FClear.No wind90%29.88 "Hg10 mi
9:52 PM72 °FClear.5 mph91%29.88 "Hg10 mi
8:52 PM74 °FPassing clouds.5 mph91%29.85 "Hg9 mi
7:52 PM77 °FSunny.No wind85%29.85 "Hg10 mi
6:52 PM77 °FThundershowers. Overcast.5 mph82%29.84 "Hg10 mi
5:52 PM75 °FPassing clouds.3 mph85%29.83 "Hg10 mi
4:52 PM78 °FThunderstorms. Mostly cloudy.7 mph82%29.85 "Hg3 mi
3:52 PM83 °FPassing clouds.9 mph63%29.83 "Hg10 mi
2:52 PM85 °FSunny.12 mph59%29.83 "Hg10 mi
1:52 PM85 °FPassing clouds.12 mph61%29.85 "Hg10 mi
12:52 PM83 °FBroken clouds.14 mph61%29.85 "Hg10 mi
Weather by CustomWeather, © 2015

See weather overviewHow to use our weather pages